Hourly Weather Pavlodar

Today, 9 May, Sunday

Time Temperature Precipitation Wind Pressure Humidity
00:00 +18°C° 0 mm 3 mps 751 mmHg 29%
01:00 +18°C° 0 mm 3 mps 750 mmHg 30%
02:00 +18°C° 0 mm 3 mps 750 mmHg 30%
03:00 +18°C° 0 mm 4 mps 750 mmHg 31%
04:00 +18°C° 0 mm 4 mps 750 mmHg 32%
05:00 +18°C° 0 mm 4 mps 750 mmHg 33%
06:00 +18°C° 0 mm 4 mps 750 mmHg 33%
07:00 +19°C° 0 mm 4 mps 750 mmHg 33%
08:00 +19°C° 0 mm 4 mps 749 mmHg 33%
09:00 +20°C° 0 mm 4 mps 749 mmHg 32%
10:00 +21°C° 0 mm 5 mps 749 mmHg 32%
11:00 +21°C° 0 mm 5 mps 749 mmHg 31%
12:00 +22°C° 0 mm 5 mps 749 mmHg 28%
13:00 +23°C° 0 mm 5 mps 748 mmHg 26%
14:00 +24°C° 0 mm 6 mps 748 mmHg 23%
15:00 +24°C° 0 mm 6 mps 748 mmHg 24%
16:00 +24°C° 0 mm 6 mps 748 mmHg 24%
17:00 +24°C° 0 mm 6 mps 747 mmHg 24%
18:00 +22°C° 0 mm 6 mps 747 mmHg 26%
19:00 +21°C° 0 mm 7 mps 747 mmHg 28%
20:00 +20°C° 0 mm 7 mps 747 mmHg 29%
21:00 +18°C° 0 mm 8 mps 748 mmHg 34%
22:00 +17°C° 0 mm 9 mps 748 mmHg 38%
23:00 +16°C° 0 mm 10 mps 748 mmHg 43%

Tomorrow, 10 May, Monday

Time Temperature Precipitation Wind Pressure Humidity
00:00 +15°C° 0 mm 9 mps 748 mmHg 42%
01:00 +13°C° 0 mm 9 mps 748 mmHg 40%
02:00 +12°C° 0 mm 9 mps 748 mmHg 39%
03:00 +12°C° 0 mm 9 mps 748 mmHg 41%
04:00 +11°C° 0 mm 9 mps 748 mmHg 43%
05:00 +10°C° 0 mm 9 mps 748 mmHg 44%
06:00 +10°C° 0.3 mm 8 mps 749 mmHg 46%
07:00 +10°C° 0.3 mm 8 mps 749 mmHg 47%
08:00 +9°C° 0.3 mm 8 mps 750 mmHg 49%
09:00 +10°C° 0.3 mm 8 mps 750 mmHg 44%
10:00 +11°C° 0.3 mm 8 mps 750 mmHg 39%
11:00 +12°C° 0.3 mm 8 mps 750 mmHg 34%
12:00 +13°C° 0 mm 8 mps 750 mmHg 31%
13:00 +15°C° 0 mm 9 mps 749 mmHg 29%
14:00 +16°C° 0 mm 9 mps 749 mmHg 27%
15:00 +16°C° 0 mm 8 mps 749 mmHg 27%
16:00 +16°C° 0 mm 7 mps 750 mmHg 27%
17:00 +16°C° 0 mm 6 mps 750 mmHg 28%
18:00 +15°C° 0 mm 5 mps 750 mmHg 31%
19:00 +14°C° 0 mm 5 mps 750 mmHg 34%
20:00 +13°C° 0 mm 4 mps 750 mmHg 37%
21:00 +12°C° 0 mm 4 mps 751 mmHg 39%
22:00 +12°C° 0 mm 5 mps 751 mmHg 42%
23:00 +10°C° 0 mm 5 mps 751 mmHg 44%

Day after tomorrow, 11 May, Tuesday

Time Temperature Precipitation Wind Pressure Humidity
00:00 +10°C° 0 mm 5 mps 751 mmHg 47%
01:00 +9°C° 0 mm 5 mps 751 mmHg 50%
02:00 +8°C° 0 mm 5 mps 751 mmHg 53%
03:00 +8°C° 0 mm 5 mps 751 mmHg 56%
04:00 +7°C° 0 mm 5 mps 752 mmHg 59%
05:00 +7°C° 0 mm 4 mps 752 mmHg 62%
06:00 +8°C° 0 mm 5 mps 753 mmHg 57%
07:00 +10°C° 0 mm 5 mps 753 mmHg 52%
08:00 +13°C° 0 mm 5 mps 753 mmHg 47%
09:00 +14°C° 0 mm 5 mps 753 mmHg 42%
10:00 +15°C° 0 mm 6 mps 753 mmHg 38%
11:00 +16°C° 0 mm 6 mps 753 mmHg 33%
12:00 +17°C° 0 mm 6 mps 753 mmHg 31%
13:00 +19°C° 0 mm 6 mps 753 mmHg 29%
14:00 +19°C° 0 mm 6 mps 753 mmHg 27%
15:00 +19°C° 0 mm 6 mps 753 mmHg 27%
16:00 +19°C° 0 mm 6 mps 753 mmHg 27%
17:00 +19°C° 0 mm 6 mps 753 mmHg 27%
18:00 +17°C° 0 mm 6 mps 754 mmHg 30%
19:00 +16°C° 0 mm 5 mps 754 mmHg 34%
20:00 +15°C° 0 mm 5 mps 755 mmHg 37%
21:00 +14°C° 0 mm 4 mps 755 mmHg 41%
22:00 +12°C° 0 mm 4 mps 755 mmHg 44%
23:00 +11°C° 0 mm 3 mps 755 mmHg 48%

12 May, Wednesday

Time Temperature Precipitation Wind Pressure Humidity
00:00 +11°C° 0 mm 3 mps 755 mmHg 49%
01:00 +10°C° 0 mm 3 mps 755 mmHg 51%
02:00 +10°C° 0 mm 2 mps 755 mmHg 52%
03:00 +9°C° 0 mm 3 mps 756 mmHg 54%
04:00 +9°C° 0 mm 3 mps 756 mmHg 55%
05:00 +9°C° 0 mm 3 mps 756 mmHg 56%
06:00 +11°C° 0 mm 3 mps 756 mmHg 50%
07:00 +13°C° 0 mm 4 mps 756 mmHg 44%
08:00 +15°C° 0 mm 4 mps 756 mmHg 38%
09:00 +17°C° 0 mm 4 mps 756 mmHg 35%
10:00 +17°C° 0 mm 5 mps 756 mmHg 32%
11:00 +17°C° 0 mm 5 mps 756 mmHg 29%
12:00 +19°C° 0 mm 5 mps 756 mmHg 28%
13:00 +19°C° 0 mm 5 mps 755 mmHg 27%
14:00 +20°C° 0 mm 5 mps 755 mmHg 26%
15:00 +20°C° 0 mm 5 mps 755 mmHg 26%
16:00 +19°C° 0 mm 5 mps 755 mmHg 26%
17:00 +19°C° 0 mm 4 mps 755 mmHg 27%
18:00 +18°C° 0 mm 3 mps 755 mmHg 30%
19:00 +17°C° 0 mm 2 mps 755 mmHg 33%
20:00 +16°C° 0 mm 1 mps 755 mmHg 37%
21:00 +15°C° 0 mm 1 mps 754 mmHg 37%
22:00 +15°C° 0 mm 1 mps 754 mmHg 38%
23:00 +14°C° 0 mm 1 mps 754 mmHg 39%

13 May, Thursday

Time Temperature Precipitation Wind Pressure Humidity
00:00 +14°C° 0 mm 1 mps 754 mmHg 40%
01:00 +13°C° 0 mm 1 mps 753 mmHg 41%
02:00 +13°C° 0 mm 1 mps 753 mmHg 43%
03:00 +13°C° 0 mm 1 mps 753 mmHg 45%
04:00 +13°C° 0 mm 2 mps 753 mmHg 46%
05:00 +12°C° 0 mm 2 mps 753 mmHg 48%
06:00 +14°C° 0 mm 2 mps 753 mmHg 46%
07:00 +16°C° 0 mm 2 mps 753 mmHg 43%
08:00 +17°C° 0 mm 2 mps 753 mmHg 41%
09:00 +18°C° 0 mm 2 mps 753 mmHg 39%
10:00 +20°C° 0 mm 2 mps 753 mmHg 37%
11:00 +21°C° 0 mm 2 mps 753 mmHg 35%
12:00 +20°C° 0 mm 2 mps 753 mmHg 37%
13:00 +20°C° 0 mm 3 mps 753 mmHg 39%
14:00 +20°C° 0 mm 4 mps 753 mmHg 41%
15:00 +20°C° 0 mm 4 mps 753 mmHg 40%
16:00 +20°C° 0 mm 3 mps 753 mmHg 40%
17:00 +20°C° 0 mm 3 mps 753 mmHg 39%
18:00 +19°C° 0 mm 3 mps 753 mmHg 43%
19:00 +18°C° 0 mm 3 mps 754 mmHg 47%
20:00 +17°C° 0 mm 3 mps 754 mmHg 51%
21:00 +16°C° 0 mm 3 mps 754 mmHg 52%
22:00 +14°C° 0 mm 3 mps 754 mmHg 54%
23:00 +14°C° 0 mm 3 mps 754 mmHg 56%

14 May, Friday

Time Temperature Precipitation Wind Pressure Humidity
00:00 +13°C° 0 mm 3 mps 754 mmHg 57%
01:00 +13°C° 0 mm 3 mps 754 mmHg 58%
02:00 +12°C° 0 mm 3 mps 754 mmHg 60%
03:00 +12°C° 0 mm 3 mps 755 mmHg 59%
04:00 +12°C° 0 mm 3 mps 755 mmHg 59%
05:00 +12°C° 0 mm 3 mps 755 mmHg 58%
06:00 +14°C° 0 mm 3 mps 756 mmHg 55%
07:00 +17°C° 0 mm 3 mps 756 mmHg 51%
08:00 +19°C° 0 mm 4 mps 756 mmHg 48%
09:00 +20°C° 0 mm 4 mps 756 mmHg 43%
10:00 +21°C° 0 mm 4 mps 756 mmHg 38%
11:00 +22°C° 0 mm 5 mps 756 mmHg 33%
12:00 +22°C° 0 mm 4 mps 756 mmHg 32%
13:00 +23°C° 0 mm 4 mps 756 mmHg 31%
14:00 +23°C° 0 mm 4 mps 756 mmHg 30%
15:00 +23°C° 0 mm 4 mps 756 mmHg 32%
16:00 +23°C° 0 mm 5 mps 756 mmHg 35%
17:00 +22°C° 0 mm 5 mps 756 mmHg 37%
18:00 +21°C° 0 mm 5 mps 756 mmHg 45%
19:00 +19°C° 0 mm 4 mps 756 mmHg 52%
20:00 +17°C° 0 mm 3 mps 757 mmHg 60%
21:00 +17°C° 0 mm 3 mps 757 mmHg 60%
22:00 +16°C° 0 mm 2 mps 757 mmHg 60%
23:00 +15°C° 0 mm 2 mps 757 mmHg 61%
Show more